Volver al catálogo

YAOGAN-35 02B

ActivoMilitarVLEO
NORAD 52908·PAYLOAD·🇨🇳 China

Lanzado Jun 23, 2022 desde Xichang Satellite Launch Center

Loading…

Próximos Pases (próximas 24 horas)

TLE

ActualizadoSource: Space-Track

Época: Sep 14, 2026, 23:19 UTC

1 52908U 22068B   26257.97202198  .00225696  00000-0  11581-2 0  9990
2 52908  34.9907 173.1464 0008581 276.5291  83.4464 15.79569923236802

Sigue YAOGAN-35 02B en tiempo real con AllMySat

Download on the App Store